Date,TemperatureHighF,TemperatureAvgF,TemperatureLowF,DewpointHighF,DewpointAvgF,DewpointLowF,HumidityHigh,HumidityAvg,HumidityLow,PressureMaxIn,PressureMinIn,WindSpeedMaxMPH,WindSpeedAvgMPH,GustSpeedMaxMPH,PrecipitationSumIn
2013-1-1,77.1,62.0,50.6,62.7,57.0,50.1,99,86,58,30.21,30.03,9,0,10,0.00
2013-1-2,80.8,65.9,54.5,68.4,61.4,53.7,98,87,62,30.07,29.96,6,0,6,0.00
2013-1-3,75.8,63.6,58.4,68.6,61.6,56.7,98,93,76,30.16,30.02,5,0,5,0.04
2013-1-4,59.6,57.5,54.9,59.0,56.8,54.1,98,97,96,30.27,30.13,4,0,6,0.09
2013-1-5,76.8,63.2,54.5,65.2,58.4,52.4,98,85,65,30.29,30.17,5,0,5,0.00
2013-1-6,81.7,68.4,60.4,70.4,64.2,59.3,98,87,67,30.20,30.04,7,0,7,0.00
2013-1-7,73.7,64.0,56.8,62.3,59.4,53.2,96,85,63,30.22,30.11,5,0,6,0.00
2013-1-8,82.1,70.7,62.6,71.9,67.0,61.2,98,89,67,30.22,30.12,4,0,5,0.00
2013-1-9,79.0,70.9,64.2,74.8,68.9,63.6,98,94,81,30.30,30.19,6,0,9,0.01
2013-1-10,82.7,70.3,63.3,71.3,65.9,62.4,99,88,58,30.31,30.21,11,0,11,0.01
2013-1-11,83.5,69.7,59.9,71.4,65.0,59.2,99,87,57,30.26,30.15,7,0,8,0.00
2013-1-12,84.2,69.0,57.9,70.7,63.3,57.3,99,84,51,30.20,30.08,7,0,8,0.01
2013-1-13,83.6,69.0,58.1,68.9,63.4,57.5,99,85,52,30.16,30.06,5,0,7,0.00
2013-1-14,83.8,68.5,57.8,68.9,63.7,57.2,99,86,56,30.19,30.10,7,0,8,0.00
2013-1-15,82.3,68.9,59.9,69.9,64.7,59.3,98,88,60,30.14,30.04,6,0,6,0.00
2013-1-16,84.2,69.5,57.7,68.5,62.6,57.1,99,82,47,30.10,29.99,6,0,7,0.01
2013-1-17,80.0,64.6,53.1,70.3,59.8,46.4,98,85,67,30.09,29.93,16,1,17,0.00
2013-1-18,65.2,54.6,40.9,61.0,49.1,35.7,93,82,74,30.27,30.08,8,0,10,0.02
2013-1-19,76.3,64.8,56.1,63.6,59.2,54.1,94,83,63,30.28,30.13,4,0,6,0.00
2013-1-20,74.7,63.5,56.8,66.2,59.6,53.8,97,88,73,30.17,30.05,5,0,6,0.00
2013-1-21,73.6,63.3,55.8,65.2,59.1,54.4,96,87,72,30.09,29.98,4,0,4,0.02
2013-1-22,65.5,57.0,44.4,56.2,46.6,38.6,94,69,45,30.27,30.05,7,0,7,0.00
2013-1-23,71.5,53.0,40.1,47.2,42.3,36.8,96,71,32,30.35,30.25,5,0,5,0.00
2013-1-24,75.6,56.2,41.3,52.6,47.1,40.5,98,76,41,30.32,30.20,7,0,8,0.00
2013-1-25,78.3,60.0,47.3,58.9,51.9,46.4,98,78,42,30.30,30.16,4,0,4,0.00
2013-1-26,78.3,59.1,45.1,59.3,52.0,44.3,99,81,45,30.26,30.14,6,0,6,0.00
2013-1-27,82.0,64.0,49.7,63.8,58.1,49.2,99,84,47,30.31,30.22,5,0,7,0.00
2013-1-28,78.5,68.2,59.6,66.7,63.4,58.7,98,86,65,30.33,30.23,12,0,12,0.00
2013-1-29,85.5,70.6,60.6,70.3,65.4,60.0,99,85,54,30.25,30.10,10,0,10,0.00
2013-1-30,84.2,72.9,63.9,67.3,65.2,63.0,97,79,53,30.11,29.87,14,2,16,0.00
2013-1-31,70.0,58.4,46.0,66.6,45.1,32.1,97,65,34,30.22,29.88,14,0,14,0.08
2013-2-1,71.4,51.8,36.1,40.5,34.6,26.5,93,58,20,30.34,30.21,6,0,6,0.00
2013-2-2,74.5,55.1,39.1,48.9,41.6,36.7,94,65,31,30.30,30.12,6,0,9,0.00
2013-2-3,71.8,55.3,39.8,53.0,44.3,37.0,98,69,43,30.18,30.04,12,0,12,0.00
2013-2-4,73.0,54.2,39.2,48.2,41.7,36.4,98,68,30,30.14,30.02,6,0,8,0.00
2013-2-5,77.4,57.8,39.9,54.8,48.5,39.1,98,75,41,30.10,29.98,7,0,7,0.00
2013-2-6,79.7,66.5,55.1,65.9,59.9,52.6,96,81,56,30.11,30.01,5,0,5,0.00
2013-2-7,82.6,72.0,62.8,65.2,63.0,60.5,94,75,54,30.07,29.85,12,1,12,0.00
2013-2-8,81.2,69.8,58.1,65.3,60.5,55.8,96,75,45,30.07,29.85,9,1,11,0.00
2013-2-9,77.7,62.5,53.9,60.2,55.7,52.2,97,81,50,30.20,30.06,4,0,5,0.00
2013-2-10,79.0,64.6,53.2,62.2,57.5,52.1,97,80,51,30.27,30.16,11,1,12,0.00
2013-2-11,83.2,69.3,54.9,65.2,61.1,54.1,98,78,51,30.21,30.06,10,1,11,0.00
2013-2-12,85.8,72.0,59.2,69.3,64.4,58.3,98,79,51,30.09,29.91,7,0,9,0.00
2013-2-13,69.3,68.9,68.7,67.8,67.4,66.4,96,95,92,29.95,29.90,5,0,6,0.00
2013-2-19,64.4,61.9,58.1,57.0,56.2,54.9,89,82,76,30.09,30.06,0,0,1,0.00
2013-2-20,78.2,63.6,55.1,63.2,57.0,53.8,97,80,58,30.13,30.01,4,0,4,0.00
2013-2-21,86.8,69.1,55.3,68.5,60.9,53.0,96,77,45,30.11,29.98,6,0,6,0.00
2013-2-22,87.9,72.3,59.1,71.6,66.3,58.2,99,84,50,30.08,29.98,9,1,11,0.00
2013-2-23,87.8,76.1,69.2,70.7,68.2,64.5,96,79,49,30.00,29.85,12,1,12,0.00
2013-2-24,77.2,69.0,63.8,72.7,67.5,63.1,98,95,82,29.96,29.85,4,0,4,0.28
2013-2-25,87.1,71.3,61.3,73.1,66.2,60.7,99,86,47,29.93,29.75,8,0,8,0.13
2013-2-26,78.1,71.5,63.8,72.6,68.3,60.5,97,90,77,29.85,29.73,12,1,13,0.02
2013-2-27,76.7,66.5,56.6,63.0,57.5,50.2,95,75,49,29.96,29.85,10,0,10,0.00
2013-2-28,56.8,54.7,53.0,50.4,49.8,49.2,87,84,79,29.94,29.92,5,0,6,0.00
2013-3-2,60.1,49.3,39.7,35.3,33.2,30.0,83,55,34,30.01,29.92,13,1,16,0.00
2013-3-3,55.2,44.6,36.4,35.7,32.7,30.2,87,64,45,30.15,29.98,13,1,16,0.00
2013-3-4,70.7,48.8,31.4,39.2,32.7,25.7,96,61,23,30.23,30.10,5,0,7,0.00
2013-3-5,79.0,59.9,40.2,56.8,44.2,36.7,98,62,32,30.18,29.99,9,1,9,0.00
2013-3-6,70.5,60.2,47.9,60.7,42.2,29.5,94,56,25,30.12,29.91,13,1,14,0.00
2013-3-7,71.2,52.9,39.4,49.0,41.1,33.3,96,67,37,30.21,30.10,6,0,7,0.00
2013-3-8,77.6,56.3,41.2,51.7,45.0,38.8,98,73,26,30.21,30.10,4,0,4,0.00
2013-3-9,77.7,59.3,45.1,55.1,50.0,44.3,98,75,41,30.22,30.13,6,0,7,0.00
2013-3-10,80.0,63.8,51.8,61.0,55.3,50.7,98,77,43,30.17,30.08,10,0,14,0.00
2013-3-11,78.9,65.5,52.7,62.0,57.6,51.9,99,78,49,30.12,29.91,11,1,12,0.00
2013-3-12,73.3,66.2,57.7,68.5,63.0,56.1,97,90,79,30.00,29.87,10,1,11,0.31
2013-3-13,57.6,55.5,52.6,56.4,54.1,50.3,96,95,92,30.02,30.00,4,0,4,0.00
2013-3-14,51.6,45.3,42.5,42.2,40.5,39.4,89,83,70,30.24,30.19,0,0,4,0.00
2013-3-15,76.0,55.0,37.8,46.0,40.0,33.0,98,65,26,30.28,30.13,5,0,6,0.00
2013-3-16,82.1,61.5,43.3,50.0,45.4,42.1,97,62,27,30.18,30.02,6,0,8,0.00
2013-3-17,80.2,63.3,46.3,60.0,52.3,43.2,98,70,42,30.15,29.98,10,1,10,0.00
2013-3-18,80.7,71.3,62.3,66.5,62.7,59.0,91,75,60,30.06,29.90,11,1,11,0.00
2013-3-20,61.3,59.7,59.3,58.6,58.0,57.4,95,94,90,29.86,29.82,2,0,4,0.53
2013-3-21,59.2,54.4,48.7,57.5,49.1,34.9,96,83,40,29.94,29.84,3,0,3,0.00
2013-3-22,80.3,59.9,44.5,60.7,50.2,43.4,97,75,34,30.02,29.88,7,0,11,0.14
2013-3-23,86.4,77.8,66.7,73.8,68.0,65.1,95,73,57,29.87,29.74,9,1,11,0.02
2013-3-24,83.1,72.0,64.5,73.7,69.0,62.7,97,91,71,29.85,29.61,17,1,18,0.77
2013-3-25,73.5,65.7,54.7,68.1,48.6,31.7,95,60,22,30.02,29.69,12,1,15,0.00
2013-3-26,62.2,53.6,45.9,40.0,31.3,23.5,67,44,24,30.23,30.01,13,1,15,0.00
2013-3-27,66.0,50.3,36.5,41.7,34.9,30.8,90,60,29,30.31,30.19,10,0,10,0.00
2013-3-28,73.7,51.9,38.2,42.9,38.6,32.2,97,69,23,30.31,30.18,5,0,6,0.00
2013-3-31,82.9,75.9,63.8,58.9,56.5,53.6,79,52,38,30.16,29.97,10,1,13,0.00
2013-4-1,87.0,72.4,60.3,67.2,61.9,56.9,94,72,45,30.03,29.90,13,1,14,0.00
2013-4-2,68.4,65.9,64.2,63.9,63.0,62.1,95,91,85,29.99,29.98,1,0,2,0.00
2013-4-3,75.0,69.0,67.2,68.4,66.9,65.2,96,93,72,30.05,29.97,4,0,6,0.15
2013-4-4,75.6,69.9,65.1,70.8,67.1,63.0,97,91,80,30.02,29.83,12,1,14,0.13
2013-4-5,76.5,67.3,57.2,69.2,63.2,55.5,96,87,64,29.98,29.79,7,0,10,0.10
2013-4-6,79.5,65.2,54.0,63.0,57.6,52.0,96,78,54,30.13,29.97,5,0,7,0.01
2013-4-7,82.5,67.9,57.1,64.1,60.3,56.1,99,79,51,30.16,30.04,6,0,8,0.00
2013-4-8,85.3,69.5,56.8,65.3,61.1,56.0,99,78,47,30.14,30.05,7,0,8,0.00
2013-4-9,83.8,66.9,61.9,68.7,62.7,58.0,99,88,52,30.17,30.07,7,0,9,0.00
2013-4-10,88.3,72.1,59.3,70.5,65.6,58.5,99,82,51,30.12,29.98,8,0,9,0.00
2013-4-11,72.2,71.6,71.0,70.7,70.3,69.8,96,95,95,30.00,29.95,7,1,7,0.00
2013-4-14,72.7,69.9,66.2,71.2,68.6,64.5,97,96,93,29.97,29.85,12,0,14,2.19
2013-4-15,92.2,75.1,65.1,71.6,66.1,63.4,97,76,47,30.07,29.89,5,0,5,0.00
2013-4-16,89.2,75.8,67.1,73.3,69.1,64.8,98,81,57,30.15,30.04,6,0,6,0.00
2013-4-17,86.0,73.1,64.7,71.3,67.3,63.8,98,83,58,30.15,30.04,8,0,10,0.00
2013-4-18,89.7,75.9,64.3,72.5,68.3,63.4,99,80,45,30.06,29.95,8,0,8,0.00
2013-4-19,92.2,78.8,70.9,74.6,71.3,69.0,97,80,48,30.02,29.88,11,2,14,0.04
2013-4-20,76.2,68.2,60.5,72.0,64.1,57.2,96,87,70,30.14,29.94,4,0,7,0.00
2013-4-21,82.0,69.4,61.7,74.6,67.0,57.9,97,92,74,30.13,30.00,4,0,6,1.76
2013-4-22,82.2,69.7,65.1,72.3,67.2,63.8,98,92,65,30.07,29.98,6,0,7,0.22
2013-4-23,83.5,70.7,61.9,68.7,63.6,59.7,98,81,49,30.11,30.00,10,0,11,0.00
2013-4-24,81.1,66.1,59.0,64.9,61.4,58.0,97,86,58,30.13,30.06,4,0,4,0.00
2013-4-25,90.7,73.5,60.6,68.6,63.3,55.6,98,75,33,30.19,30.09,5,0,6,0.00
2013-4-26,89.2,74.5,62.9,70.8,66.0,62.0,97,77,49,30.23,30.14,5,0,6,0.00
2013-4-27,84.8,69.7,64.2,70.2,65.8,63.3,98,89,56,30.22,30.10,2,0,9,0.00
2013-4-28,83.7,72.8,63.6,69.2,65.7,62.7,98,80,53,30.13,30.00,4,0,10,0.00
2013-4-29,86.6,74.4,64.6,71.5,66.0,63.1,96,77,48,30.02,29.89,4,0,16,0.68
2013-4-30,89.9,73.6,65.6,71.8,68.1,64.7,98,85,50,30.00,29.91,3,0,7,0.18
2013-5-1,78.9,71.7,67.3,73.2,69.6,66.4,98,94,80,30.01,29.93,0,0,3,0.17
2013-5-2,77.5,70.6,66.5,73.2,68.8,65.6,98,94,83,29.95,29.81,1,0,6,0.95
2013-5-3,81.9,71.5,65.9,72.4,68.6,65.3,98,91,71,29.83,29.65,3,0,12,1.04
2013-5-4,84.3,73.4,68.0,72.7,69.3,67.1,97,88,65,29.77,29.65,2,0,6,0.14
2013-5-5,80.3,70.6,62.2,67.4,55.9,47.6,95,64,35,29.92,29.73,8,1,13,0.00
2013-5-6,80.4,68.9,60.0,61.1,56.8,52.2,96,68,43,29.98,29.88,3,0,10,0.00
2013-5-7,80.0,67.6,55.0,60.3,56.9,53.3,95,71,48,30.04,29.94,3,0,13,0.00
2013-5-8,83.3,71.1,58.6,63.6,60.1,57.7,98,71,44,30.11,30.01,3,0,9,0.00
2013-5-9,88.6,73.0,58.8,66.2,62.4,57.9,98,73,38,30.14,30.06,1,0,5,0.00
2013-5-10,69.0,69.0,69.0,66.6,66.6,66.6,92,92,92,30.12,30.12,0,0,1,0.00
2013-5-21,70.4,70.4,70.4,69.2,69.2,68.8,96,96,96,29.97,29.96,0,0,0,0.06
2013-5-22,91.8,76.0,67.2,74.7,70.6,66.3,99,85,49,29.97,29.90,7,0,9,0.00
2013-5-23,93.8,77.5,68.5,75.2,70.5,67.1,98,82,44,29.98,29.89,6,0,9,0.28
2013-5-24,95.0,79.5,67.5,75.7,68.6,63.3,98,74,36,30.08,29.95,7,0,7,0.00
2013-5-25,87.0,75.4,66.1,71.1,65.6,60.0,98,74,50,30.19,30.06,8,0,8,0.00
2013-5-26,87.8,72.1,59.3,65.6,61.9,58.2,98,73,44,30.21,30.14,6,0,8,0.00
2013-5-27,88.5,74.7,63.2,67.5,64.7,61.9,97,74,45,30.18,30.09,9,0,9,0.00
2013-5-28,90.0,76.6,0.0,73.7,69.5,0.0,96,80,57,30.14,30.07,6,0,9,0.00
2013-5-29,88.2,77.1,70.0,75.8,72.5,68.8,97,86,63,30.13,30.05,10,0,11,0.05
2013-5-30,88.0,78.0,71.3,76.2,72.3,69.2,97,83,59,30.12,30.04,12,1,14,0.23
2013-5-31,88.3,77.4,70.3,76.4,71.7,68.6,97,84,59,30.11,30.03,8,0,9,0.03
2013-6-1,90.0,78.3,71.2,78.3,73.9,70.0,97,87,66,30.07,29.96,9,0,9,0.18
2013-6-2,94.3,78.8,72.7,79.2,74.6,71.2,98,88,54,30.01,29.87,8,0,8,0.18
2013-6-3,92.3,80.1,73.2,77.8,74.5,72.3,98,84,57,29.99,29.86,8,0,8,0.00
2013-6-4,90.8,78.9,72.6,76.4,73.2,71.3,97,84,59,30.03,29.92,10,0,11,0.00
2013-6-6,78.9,74.9,72.5,77.1,73.2,70.4,98,95,82,29.83,29.66,13,2,14,2.10
2013-6-7,90.4,79.9,72.6,76.9,73.6,70.8,97,82,63,29.94,29.75,6,1,7,0.00
2013-6-8,93.9,77.6,70.6,78.9,73.0,69.4,97,87,58,30.10,29.94,8,0,8,1.44
2013-6-9,92.3,78.9,70.1,78.2,73.5,69.5,99,85,61,30.10,30.01,9,1,11,0.00
2013-6-10,92.8,80.7,73.2,80.1,75.1,72.3,98,84,58,30.09,30.00,6,0,8,0.00
2013-6-11,94.8,78.6,71.8,78.7,74.2,70.5,98,88,55,30.07,29.99,7,0,7,0.05
2013-6-12,71.8,71.4,71.0,70.8,70.5,70.1,97,97,96,30.05,30.02,0,0,0,0.00
2013-6-13,93.6,81.1,76.9,76.5,74.5,73.4,91,81,55,29.92,29.87,6,0,9,0.01
2013-6-14,93.8,83.1,74.3,76.2,73.3,68.8,96,75,47,29.92,29.82,9,0,9,0.00
2013-6-15,79.8,78.7,77.7,75.0,74.3,73.6,90,87,82,29.92,29.90,1,0,2,0.00
2013-6-17,81.7,77.4,76.0,77.5,75.0,74.1,96,92,84,30.05,30.00,5,0,6,0.14
2013-6-18,94.8,81.1,71.7,78.6,74.6,70.5,97,83,53,30.07,29.93,7,0,8,0.38
2013-6-19,94.3,82.1,72.1,78.6,74.7,71.0,97,80,50,30.03,29.92,8,0,9,0.00
2013-6-20,93.6,79.6,72.6,79.4,74.3,69.8,97,85,61,30.08,30.00,6,0,7,0.15
2013-6-21,92.5,77.8,71.4,77.8,73.1,70.8,99,87,56,30.11,30.03,11,0,11,0.03
2013-6-22,94.3,78.3,71.9,76.7,72.5,70.1,99,84,47,30.11,30.03,3,0,7,0.00
2013-6-23,92.4,78.5,72.0,78.2,74.5,71.1,98,88,58,30.14,30.06,5,0,5,0.03
2013-6-24,91.5,80.2,72.5,79.0,74.4,71.6,98,84,59,30.18,30.07,9,0,9,0.09
2013-6-25,93.0,81.1,71.8,78.8,74.2,70.8,98,81,57,30.15,30.03,6,0,8,0.00
2013-6-26,94.0,80.0,74.0,78.9,74.6,71.3,97,85,57,30.07,30.00,9,0,14,0.01
2013-6-27,95.9,81.2,71.2,78.2,73.7,70.3,98,80,51,30.04,29.91,8,0,8,0.01
2013-6-28,93.5,79.0,74.0,78.1,74.2,71.3,95,86,58,29.96,29.83,8,0,8,0.14
2013-6-29,91.0,80.3,74.7,78.3,74.9,72.6,97,85,60,29.87,29.78,7,1,11,0.01
2013-6-30,91.7,77.7,73.4,78.6,74.0,71.9,97,89,63,29.89,29.81,8,0,10,0.05
2013-7-1,87.0,76.8,73.1,77.8,73.3,71.2,96,90,68,30.02,29.86,11,1,13,0.38
2013-7-2,86.8,75.8,73.2,79.3,74.0,72.0,97,94,78,30.10,29.97,10,0,10,1.20
2013-7-3,90.6,77.8,72.7,79.9,74.9,71.8,98,91,67,30.13,30.05,12,0,12,0.50
2013-7-4,91.7,80.1,72.2,78.1,74.3,71.3,99,84,60,30.15,30.06,12,1,12,0.00
2013-7-5,91.5,81.0,73.6,80.1,75.0,72.3,98,83,56,30.15,30.06,9,1,14,0.48
2013-7-6,92.5,81.7,72.9,77.4,74.8,72.0,98,81,58,30.12,30.04,10,1,12,0.00
2013-7-7,93.2,82.2,73.6,77.9,74.9,72.3,98,80,54,30.13,30.04,10,0,10,0.00
2013-7-8,95.7,82.4,74.3,78.9,75.2,73.0,98,81,54,30.16,30.07,5,0,7,0.00
2013-7-9,93.2,81.3,72.1,76.9,73.3,70.1,98,79,51,30.16,30.05,6,0,6,0.00
2013-7-10,93.0,80.5,72.8,78.5,74.1,71.9,98,82,54,30.08,29.96,5,0,5,0.02
2013-7-11,77.0,76.1,74.8,73.0,72.4,71.9,92,88,85,30.04,29.98,5,1,5,0.00
2013-7-12,80.0,76.3,75.4,75.8,73.9,73.0,94,92,87,29.94,29.89,1,0,1,0.10
2013-7-13,93.3,78.3,72.8,78.0,73.8,71.4,98,87,58,29.99,29.90,8,0,11,0.01
2013-7-14,89.2,76.8,71.9,77.7,73.7,71.0,97,91,67,30.09,29.97,7,0,8,0.10
2013-7-15,90.0,78.5,70.1,78.5,73.8,69.2,99,86,66,30.12,30.01,4,0,4,0.01
2013-7-16,90.5,77.3,73.3,79.6,74.1,72.1,98,91,63,30.16,30.09,1,0,1,0.02
2013-7-17,78.9,75.9,73.9,76.7,74.4,72.3,97,95,93,30.12,30.08,0,0,0,0.21
2013-7-18,88.1,77.9,71.9,77.5,73.6,70.8,98,88,65,30.11,30.03,8,0,11,0.05
2013-7-19,90.5,77.8,72.0,78.9,73.5,70.8,98,88,63,30.13,30.01,11,0,11,0.90
2013-7-20,94.0,78.3,71.9,80.7,74.4,71.3,99,89,59,30.09,29.99,3,0,10,0.03
2013-7-21,94.5,79.9,72.5,79.9,74.7,71.1,97,85,59,30.11,29.99,6,0,7,0.00
2013-7-22,94.9,79.8,74.1,78.9,74.9,71.9,97,86,54,30.10,30.05,6,0,7,0.05
2013-7-23,87.8,78.9,73.6,78.4,74.6,72.7,98,87,67,30.08,29.92,3,0,5,0.00
2013-7-24,88.1,81.2,75.0,80.5,75.7,72.6,97,84,64,29.98,29.86,3,0,6,0.02
2013-7-25,88.0,80.1,75.3,79.4,76.2,73.1,96,88,74,29.96,29.85,5,0,5,0.09
2013-7-26,94.9,82.4,74.6,80.8,76.7,73.7,98,85,58,29.99,29.92,2,0,3,0.02
2013-7-27,95.2,81.0,74.0,79.6,75.6,73.1,98,85,55,29.98,29.87,3,0,3,0.21
2013-7-28,94.5,78.8,72.1,78.7,73.9,70.2,99,87,46,30.05,29.92,4,0,5,0.34
2013-7-29,95.5,79.7,71.9,79.9,75.1,71.3,99,87,55,30.14,30.01,4,0,6,0.01
2013-7-30,96.3,82.6,74.1,82.6,76.2,73.5,99,83,54,30.16,30.07,5,0,5,0.05
2013-7-31,93.3,79.8,73.0,81.3,76.3,71.0,98,90,62,30.12,29.99,7,0,9,1.80
2013-8-1,96.7,79.3,72.7,79.0,74.6,71.2,98,87,51,30.06,29.94,8,0,12,0.04
2013-8-2,94.3,81.5,73.5,79.8,75.2,72.9,99,83,57,30.02,29.92,4,0,4,0.01
2013-8-3,95.9,79.7,74.6,79.9,75.2,73.4,97,88,51,30.08,29.98,9,0,11,0.33
2013-8-4,93.7,80.1,74.6,81.0,76.8,73.7,98,90,61,30.07,29.96,2,0,13,0.32
2013-8-5,94.8,81.1,73.3,82.2,77.2,70.8,98,89,60,30.01,29.90,6,0,6,0.81
2013-8-13,97.4,85.9,80.3,77.8,74.6,68.9,86,71,42,30.00,29.90,4,0,5,0.00
2013-8-14,97.6,80.7,73.4,79.3,75.5,71.9,97,86,51,30.01,29.88,8,0,13,0.85
2013-8-15,75.1,74.5,74.1,74.2,73.8,73.3,98,98,97,30.01,29.94,0,0,0,0.00
2013-8-22,79.7,78.0,76.8,77.5,76.1,74.7,97,94,88,30.03,29.98,1,0,1,0.01
2013-8-23,93.7,81.0,75.3,81.4,77.0,74.7,99,88,63,30.02,29.94,3,0,3,0.04
2013-8-24,94.5,78.4,73.4,80.8,75.4,72.5,98,91,59,30.10,29.99,5,0,7,0.93
2013-8-25,85.1,77.6,73.2,79.3,75.3,72.9,99,93,76,30.15,30.07,4,0,4,0.07
2013-8-26,90.8,79.9,72.8,80.8,75.7,72.2,99,88,65,30.13,30.00,3,0,7,0.06
2013-8-27,91.1,79.4,72.1,76.0,72.4,68.6,99,81,56,30.06,29.98,4,0,4,0.22
2013-8-28,93.0,79.7,69.6,75.2,71.1,68.7,98,78,49,30.05,29.96,2,0,3,0.00
2013-8-29,94.6,81.1,71.8,76.4,73.0,70.3,98,79,48,30.02,29.91,3,0,3,0.00
2013-8-30,96.0,82.1,73.8,79.2,75.0,72.9,97,81,50,29.98,29.87,3,0,7,0.00
2013-8-31,96.5,81.6,72.3,78.2,74.2,70.1,98,81,49,29.96,29.84,6,0,7,0.27
2013-9-1,94.7,79.4,72.2,78.5,73.7,71.2,98,85,55,29.99,29.87,17,0,18,0.31
2013-9-2,92.3,79.5,72.5,78.0,74.7,71.9,99,87,57,30.00,29.90,3,0,3,0.05
2013-9-3,94.0,81.8,72.3,78.8,74.8,71.2,99,81,50,30.01,29.90,5,0,5,0.01
2013-9-7,85.8,74.8,72.2,76.8,73.7,71.5,98,96,74,29.96,29.91,0,0,1,0.17
2013-9-8,91.5,79.5,71.8,78.5,74.1,71.2,99,85,60,29.96,29.86,3,0,4,0.00
2013-9-9,93.2,80.4,72.0,75.8,73.3,70.7,98,81,52,30.03,29.92,3,0,4,0.00
2013-9-10,92.5,80.4,72.2,76.8,73.5,69.3,98,81,51,30.09,29.99,5,0,5,0.00
2013-9-11,75.2,74.6,73.8,73.8,73.2,72.4,96,95,94,30.07,30.01,0,0,0,0.00
2013-9-15,78.4,76.7,75.0,76.2,73.4,72.1,93,89,88,30.06,30.04,1,0,1,0.00
2013-9-16,93.6,79.4,72.0,79.2,74.3,71.1,98,86,54,30.07,29.97,4,0,4,0.10
2013-9-17,92.0,80.0,73.1,78.7,74.6,72.2,99,85,61,30.05,29.95,8,0,8,0.00
2013-9-18,89.8,78.7,73.5,79.2,74.4,71.0,96,87,66,30.03,29.95,1,0,3,0.02
2013-9-19,92.2,78.8,72.0,77.1,73.4,69.8,98,85,55,30.04,29.96,4,0,4,0.02
2013-9-20,91.1,78.0,68.5,74.1,70.6,67.5,98,80,52,30.02,29.90,3,0,5,0.00
2013-9-21,93.6,79.3,69.1,75.0,71.2,68.5,99,79,49,29.94,29.75,3,0,3,0.00
2013-9-22,91.3,78.4,72.7,77.5,73.6,70.5,98,87,59,29.85,29.73,6,0,10,0.11
2013-9-23,88.0,76.2,73.2,80.5,74.5,72.6,99,95,73,29.95,29.83,0,0,1,0.82
2013-9-24,86.1,76.7,72.7,77.8,74.7,71.5,98,94,73,29.95,29.82,0,0,7,0.56
2013-9-25,82.9,76.9,73.3,74.9,73.3,71.6,98,89,75,29.84,29.76,2,0,7,0.00
2013-9-26,92.5,80.8,73.4,79.8,74.0,66.4,98,82,45,29.85,29.75,3,0,4,0.00
2013-9-27,84.8,74.7,70.0,75.8,71.8,68.9,98,91,71,29.95,29.83,1,0,2,0.03
2013-9-28,83.4,75.9,70.3,76.8,72.1,69.7,98,88,73,30.00,29.90,4,0,4,0.01
2013-9-29,90.5,77.1,68.9,74.2,70.7,67.8,97,82,53,29.98,29.89,1,0,6,0.00
2013-9-30,92.6,77.3,68.2,77.1,71.1,67.6,99,83,49,30.01,29.90,1,0,1,0.00
2013-10-1,91.1,78.2,71.1,77.1,72.3,69.6,97,83,60,30.06,29.97,2,0,2,0.00
2013-10-2,88.8,77.1,68.7,75.0,70.8,67.5,97,83,61,30.06,29.98,1,0,2,0.00
2013-10-3,90.8,77.7,68.0,76.7,71.3,67.4,98,82,56,30.07,29.98,2,0,2,0.00
2013-10-4,92.8,78.7,69.6,76.3,72.2,68.7,99,83,52,30.07,29.98,1,0,2,0.00
2013-10-5,91.7,77.9,69.1,77.9,72.2,68.5,99,84,56,30.05,29.95,2,0,4,0.00
2013-10-6,92.4,77.9,70.4,79.4,73.5,69.8,99,88,57,29.97,29.84,7,0,7,0.17
2013-10-7,85.7,76.5,72.1,77.9,73.7,71.5,98,91,73,29.88,29.74,6,0,7,0.06
2013-10-8,91.0,78.6,73.6,78.8,74.4,71.8,98,88,61,29.93,29.76,4,0,4,0.01
2013-10-9,82.8,74.3,67.9,73.2,69.9,65.7,94,87,70,30.03,29.90,2,0,3,0.00
2013-10-10,67.9,66.9,66.3,66.1,65.5,65.1,96,95,94,30.02,29.99,1,0,1,0.00
2013-10-11,73.1,70.8,68.8,67.2,66.8,66.2,92,87,81,29.99,29.95,0,0,0,0.00
2013-10-12,89.8,75.3,65.3,71.2,65.8,61.5,98,76,40,30.03,29.94,1,0,1,0.00
2013-10-13,88.7,74.6,63.3,70.0,64.8,60.9,98,75,42,30.07,29.97,1,0,1,0.00
2013-10-14,88.5,74.9,67.3,71.7,68.4,65.0,97,82,53,30.03,29.92,1,0,4,0.00
2013-10-15,84.5,73.3,68.1,73.7,70.0,66.6,97,90,68,29.99,29.88,1,0,1,0.00
2013-10-16,90.0,76.6,68.5,75.2,70.7,67.1,98,84,50,29.97,29.88,1,0,1,0.00
2013-10-17,92.1,77.5,68.2,76.0,71.0,67.5,99,83,50,29.98,29.87,0,0,1,0.00
2013-10-18,92.3,78.4,69.0,76.0,71.6,68.2,99,82,50,29.98,29.88,3,0,3,0.00
2013-10-19,91.8,79.5,70.1,76.1,72.8,69.2,98,82,53,29.95,29.85,6,0,7,0.00
2013-10-20,89.2,78.3,73.2,78.6,73.9,71.1,98,87,65,29.96,29.84,1,0,1,0.00
2013-10-21,94.5,79.2,70.9,78.4,73.9,70.0,98,86,54,29.99,29.88,4,0,4,0.31
2013-10-22,90.5,79.3,72.2,78.3,73.8,71.0,99,85,62,29.94,29.78,7,0,7,0.03
2013-10-23,84.5,75.1,65.6,71.7,64.7,54.4,94,72,42,30.00,29.79,2,0,3,0.00
2013-10-24,73.0,65.7,61.2,61.2,56.6,48.0,90,73,57,30.15,30.00,2,0,2,0.00
2013-10-25,82.3,67.7,57.1,59.8,57.4,51.9,97,74,40,30.22,30.13,1,0,2,0.00
2013-10-26,81.8,66.8,55.0,61.4,56.6,50.9,96,73,35,30.20,30.08,0,0,1,0.00
2013-10-27,81.5,65.4,55.1,63.1,57.2,54.3,98,78,44,30.13,30.05,1,0,5,0.00
2013-10-28,86.8,67.6,54.3,68.1,60.5,53.1,99,81,48,30.18,30.09,1,0,1,0.00
2013-10-29,85.2,71.4,61.1,71.1,65.3,60.2,99,83,57,30.21,30.13,5,0,5,0.00
2013-10-30,85.4,72.5,65.3,72.0,67.2,64.1,98,85,59,30.22,30.10,0,0,1,0.00
2013-10-31,88.0,74.6,64.5,72.0,68.1,63.7,99,82,52,30.12,29.98,5,0,8,0.00
2013-11-1,89.5,77.5,67.3,74.3,69.6,66.0,98,79,52,30.00,29.84,9,0,11,0.00
2013-11-2,75.8,68.6,61.5,72.6,66.8,60.5,97,94,87,29.96,29.80,3,0,4,0.14
2013-11-3,79.1,64.9,56.1,63.3,56.2,49.4,98,77,39,30.10,29.94,6,0,6,0.00
2013-11-4,78.7,68.9,62.7,65.9,61.7,57.3,93,79,55,30.17,30.08,6,0,7,0.01
2013-11-5,83.5,73.8,64.1,71.9,67.4,62.3,95,81,64,30.15,30.08,7,0,8,0.00
2013-11-14,60.2,58.6,57.8,57.6,56.5,55.8,95,93,91,30.20,30.17,0,0,0,0.00
2013-11-15,79.0,67.4,58.2,68.9,63.2,56.7,96,87,67,30.20,30.07,1,0,2,0.04
2013-11-16,76.8,70.4,66.6,73.8,69.2,65.4,98,96,88,30.13,30.02,1,0,1,0.15
2013-11-17,87.7,75.6,67.5,74.2,70.4,66.8,99,85,60,30.08,29.98,5,0,5,0.00
2013-11-18,86.3,75.3,69.0,74.1,70.1,67.7,98,85,63,30.02,29.90,2,0,4,0.00
2013-11-19,79.8,71.4,66.2,69.7,65.6,61.5,97,83,57,29.97,29.87,2,0,2,0.00
2013-11-20,83.3,71.8,65.5,73.2,68.6,63.2,97,90,69,30.10,29.95,4,0,6,0.10
2013-11-21,77.6,71.4,68.8,73.6,70.0,68.2,98,95,85,30.18,30.09,1,0,2,0.18
2013-11-22,80.6,71.8,66.7,72.8,68.7,65.2,99,91,71,30.19,30.10,2,0,3,0.05
2013-11-23,86.0,72.3,63.3,71.4,66.7,62.4,99,84,55,30.10,29.98,3,0,3,0.00
2013-11-24,71.4,65.4,61.9,66.5,60.3,54.9,98,84,73,30.23,30.01,3,0,9,0.00
2013-11-25,76.0,66.7,59.2,63.5,59.0,54.2,89,77,58,30.25,30.07,4,0,6,0.00
2013-11-26,82.2,74.0,65.8,74.1,70.1,63.5,97,88,73,30.08,29.73,14,0,16,0.15
2013-11-27,74.2,63.4,42.9,72.4,57.9,38.1,96,83,62,30.20,29.68,7,0,8,0.08
2013-11-28,68.2,51.6,37.5,54.5,45.0,34.0,90,79,60,30.33,30.19,2,0,2,0.00
2013-11-29,73.3,59.7,51.1,62.5,55.0,49.1,96,85,67,30.36,30.27,2,0,3,0.00
2013-11-30,77.0,65.4,58.1,67.8,61.8,55.7,97,89,68,30.30,30.17,2,0,3,0.01
2013-12-1,74.8,65.7,61.8,67.9,63.5,60.9,98,93,77,30.17,29.97,1,0,1,0.00
2013-12-2,74.8,64.5,58.0,64.3,60.3,56.2,98,88,59,29.97,29.80,3,0,3,0.00
2013-12-3,79.3,66.2,54.2,63.6,59.7,53.5,99,82,55,29.99,29.88,3,0,4,0.00
2013-12-4,82.5,70.0,59.7,69.8,64.6,58.3,98,84,59,30.08,29.96,5,0,5,0.00
2013-12-5,85.7,71.7,59.9,70.9,66.0,59.0,99,84,59,30.17,30.07,1,0,2,0.00
2013-12-6,84.8,73.5,63.8,73.4,68.7,62.9,99,86,64,30.18,30.07,5,0,7,0.00
2013-12-7,86.3,73.6,64.9,70.3,66.3,63.6,97,81,51,30.20,30.12,2,0,3,0.00
2013-12-8,84.5,73.9,65.6,73.0,67.8,65.3,100,83,56,30.23,30.10,6,0,6,0.00
2013-12-9,84.5,73.7,63.5,73.5,68.3,62.8,100,85,60,30.19,30.07,6,0,7,0.00
2013-12-10,85.3,73.2,63.4,72.4,66.9,60.7,98,82,55,30.18,30.04,6,0,6,0.00
2013-12-11,67.6,66.2,66.0,63.3,61.6,61.1,86,85,85,30.18,30.17,0,0,1,0.00
2013-12-22,86.0,76.6,71.5,71.7,69.6,67.8,93,80,60,30.13,30.06,6,0,8,0.00
2013-12-23,86.0,74.5,68.7,74.5,69.2,66.7,99,85,61,30.16,30.06,10,0,10,0.00
2013-12-24,71.5,64.6,51.6,69.7,55.7,31.4,95,75,30,30.25,30.07,1,0,2,0.00
2013-12-25,77.7,59.7,46.6,60.0,51.5,40.7,95,76,47,30.24,30.15,3,0,3,0.00
2013-12-26,79.5,64.1,56.5,65.9,59.6,55.2,97,86,59,30.22,30.08,1,0,1,0.00
2013-12-27,71.8,64.9,59.5,66.9,62.2,57.8,95,91,82,30.25,30.15,0,0,1,0.00
2013-12-28,76.6,69.3,64.3,72.7,67.4,63.4,98,94,82,30.21,30.01,7,0,7,0.28
2013-12-29,78.7,72.0,65.2,73.4,70.0,64.3,97,93,80,30.01,29.87,8,0,8,0.11
2013-12-30,70.5,62.7,55.0,64.4,59.7,53.3,97,90,68,30.19,29.97,0,0,2,0.02
2013-12-31,70.5,61.2,57.0,56.1,54.4,51.8,92,79,58,30.30,30.16,6,0,6,0.00
2014-1-1,66.0,61.7,58.8,64.1,59.7,55.5,98,93,89,30.25,30.05,3,0,4,0.01
2014-1-2,81.3,68.4,60.5,73.8,66.4,57.2,99,94,74,30.05,29.80,13,1,13,0.48